When you browse on this site, cookies collect data to enhance your experience and personalize the content and advertising you see.
Visit our Privacy Policy to learn more. By continuing to use the site, you agree to this use of cookies and data.

Hourly Weather Kozani

Today, 12 August, Wednesday

Time Temperature Precipitation Wind Pressure Humidity
00:00 +21°C° 0 mm 0 mps 705 mmHg 59%
01:00 +23°C° 0 mm 1 mps 705 mmHg 60%
02:00 +22°C° 0 mm 1 mps 705 mmHg 61%
03:00 +22°C° 0 mm 1 mps 704 mmHg 62%
04:00 +22°C° 0 mm 1 mps 704 mmHg 63%
05:00 +23°C° 0 mm 1 mps 705 mmHg 60%
06:00 +24°C° 0 mm 1 mps 705 mmHg 57%
07:00 +25°C° 0 mm 1 mps 705 mmHg 53%
08:00 +27°C° 0 mm 1 mps 705 mmHg 48%
09:00 +29°C° 0 mm 1 mps 706 mmHg 43%
10:00 +30°C° 0 mm 1 mps 706 mmHg 37%
11:00 +31°C° 0 mm 1 mps 706 mmHg 35%
12:00 +32°C° 0 mm 1 mps 706 mmHg 32%
13:00 +32°C° 0 mm 1 mps 706 mmHg 29%
14:00 +32°C° 0 mm 2 mps 705 mmHg 30%
15:00 +32°C° 0 mm 2 mps 705 mmHg 30%
16:00 +32°C° 0 mm 2 mps 705 mmHg 30%
17:00 +30°C° 0 mm 2 mps 705 mmHg 35%
18:00 +29°C° 0 mm 2 mps 705 mmHg 39%
19:00 +27°C° 0 mm 1 mps 705 mmHg 44%
20:00 +26°C° 0 mm 1 mps 705 mmHg 46%
21:00 +26°C° 0 mm 1 mps 705 mmHg 48%
22:00 +25°C° 0 mm 1 mps 705 mmHg 50%
23:00 +24°C° 0 mm 1 mps 705 mmHg 52%

Tomorrow, 13 August, Thursday

Time Temperature Precipitation Wind Pressure Humidity
00:00 +24°C° 0 mm 1 mps 705 mmHg 55%
01:00 +23°C° 0 mm 1 mps 705 mmHg 57%
02:00 +23°C° 0 mm 1 mps 705 mmHg 59%
03:00 +22°C° 0 mm 1 mps 704 mmHg 61%
04:00 +22°C° 0 mm 1 mps 704 mmHg 63%
05:00 +23°C° 0 mm 1 mps 705 mmHg 61%
06:00 +24°C° 0 mm 1 mps 705 mmHg 58%
07:00 +26°C° 0 mm 1 mps 706 mmHg 55%
08:00 +27°C° 0 mm 1 mps 706 mmHg 51%
09:00 +29°C° 0 mm 1 mps 706 mmHg 47%
10:00 +30°C° 0 mm 1 mps 706 mmHg 42%
11:00 +31°C° 0.1 mm 1 mps 706 mmHg 41%
12:00 +31°C° 0.1 mm 1 mps 706 mmHg 39%
13:00 +32°C° 0.1 mm 1 mps 706 mmHg 37%
14:00 +31°C° 0 mm 1 mps 706 mmHg 38%
15:00 +31°C° 0 mm 1 mps 705 mmHg 40%
16:00 +31°C° 0 mm 2 mps 705 mmHg 41%
17:00 +29°C° 0 mm 1 mps 705 mmHg 45%
18:00 +28°C° 0 mm 1 mps 705 mmHg 48%
19:00 +27°C° 0 mm 1 mps 705 mmHg 52%
20:00 +26°C° 0 mm 1 mps 705 mmHg 54%
21:00 +25°C° 0 mm 1 mps 705 mmHg 56%
22:00 +23°C° 0 mm 0 mps 705 mmHg 58%
23:00 +22°C° 0 mm 0 mps 705 mmHg 60%

Day after tomorrow, 14 August, Friday

Time Temperature Precipitation Wind Pressure Humidity
00:00 +22°C° 0 mm 0 mps 705 mmHg 61%
01:00 +21°C° 0 mm 0 mps 705 mmHg 62%
02:00 +21°C° 0 mm 0 mps 705 mmHg 64%
03:00 +20°C° 0 mm 0 mps 704 mmHg 66%
04:00 +20°C° 0 mm 0 mps 704 mmHg 67%
05:00 +21°C° 0 mm 0 mps 704 mmHg 64%
06:00 +22°C° 0 mm 0 mps 705 mmHg 62%
07:00 +23°C° 0 mm 0 mps 705 mmHg 59%
08:00 +27°C° 0.1 mm 1 mps 705 mmHg 55%
09:00 +28°C° 0.1 mm 1 mps 705 mmHg 51%
10:00 +30°C° 0.1 mm 1 mps 705 mmHg 47%
11:00 +30°C° 0.2 mm 1 mps 705 mmHg 45%
12:00 +31°C° 0.2 mm 1 mps 705 mmHg 42%
13:00 +32°C° 0.2 mm 1 mps 705 mmHg 40%
14:00 +32°C° 0.1 mm 1 mps 704 mmHg 40%
15:00 +32°C° 0.1 mm 1 mps 704 mmHg 41%
16:00 +31°C° 0.1 mm 1 mps 704 mmHg 41%
17:00 +30°C° 0 mm 1 mps 704 mmHg 47%
18:00 +28°C° 0 mm 1 mps 703 mmHg 53%
19:00 +26°C° 0 mm 1 mps 703 mmHg 59%
20:00 +26°C° 0 mm 1 mps 703 mmHg 60%
21:00 +25°C° 0 mm 1 mps 703 mmHg 62%
22:00 +24°C° 0 mm 1 mps 704 mmHg 64%
23:00 +24°C° 0 mm 1 mps 703 mmHg 65%

15 August, Saturday

Time Temperature Precipitation Wind Pressure Humidity
00:00 +23°C° 0 mm 1 mps 703 mmHg 66%
01:00 +21°C° 0 mm 0 mps 703 mmHg 68%
02:00 +20°C° 0 mm 0 mps 703 mmHg 69%
03:00 +20°C° 0 mm 0 mps 703 mmHg 70%
04:00 +20°C° 0 mm 0 mps 702 mmHg 72%
05:00 +21°C° 0 mm 0 mps 703 mmHg 68%
06:00 +22°C° 0 mm 0 mps 703 mmHg 64%
07:00 +25°C° 0 mm 1 mps 703 mmHg 61%
08:00 +26°C° 0 mm 1 mps 703 mmHg 56%
09:00 +28°C° 0 mm 2 mps 704 mmHg 52%
10:00 +29°C° 0 mm 2 mps 704 mmHg 47%
11:00 +30°C° 0.1 mm 2 mps 704 mmHg 44%
12:00 +31°C° 0.1 mm 3 mps 703 mmHg 42%
13:00 +33°C° 0.1 mm 3 mps 703 mmHg 39%
14:00 +31°C° 0.1 mm 3 mps 703 mmHg 40%
15:00 +31°C° 0.1 mm 3 mps 702 mmHg 41%
16:00 +30°C° 0.1 mm 3 mps 702 mmHg 42%
17:00 +28°C° 0.3 mm 2 mps 702 mmHg 50%
18:00 +26°C° 0.3 mm 2 mps 702 mmHg 58%
19:00 +24°C° 0.3 mm 2 mps 702 mmHg 66%
20:00 +23°C° 0.3 mm 1 mps 702 mmHg 69%
21:00 +22°C° 0.3 mm 1 mps 702 mmHg 73%
22:00 +19°C° 0.3 mm 0 mps 702 mmHg 77%
23:00 +19°C° 0.1 mm 0 mps 702 mmHg 77%

16 August, Sunday

Time Temperature Precipitation Wind Pressure Humidity
00:00 +19°C° 0.1 mm 0 mps 702 mmHg 78%
01:00 +19°C° 0.1 mm 0 mps 702 mmHg 78%
02:00 +18°C° 0 mm 0 mps 702 mmHg 78%
03:00 +18°C° 0 mm 0 mps 702 mmHg 79%
04:00 +18°C° 0 mm 0 mps 701 mmHg 79%
05:00 +19°C° 0 mm 0 mps 702 mmHg 74%
06:00 +20°C° 0 mm 0 mps 702 mmHg 69%
07:00 +21°C° 0 mm 0 mps 703 mmHg 65%
08:00 +24°C° 0 mm 1 mps 703 mmHg 59%
09:00 +26°C° 0 mm 1 mps 703 mmHg 53%
10:00 +27°C° 0 mm 2 mps 704 mmHg 47%
11:00 +28°C° 0.1 mm 2 mps 704 mmHg 45%
12:00 +29°C° 0.1 mm 2 mps 703 mmHg 43%
13:00 +30°C° 0.1 mm 2 mps 703 mmHg 40%
14:00 +29°C° 0.2 mm 2 mps 703 mmHg 43%
15:00 +29°C° 0.2 mm 2 mps 703 mmHg 45%
16:00 +28°C° 0.2 mm 2 mps 703 mmHg 48%
17:00 +27°C° 0.1 mm 2 mps 703 mmHg 52%
18:00 +26°C° 0.1 mm 2 mps 703 mmHg 56%
19:00 +24°C° 0.1 mm 2 mps 703 mmHg 60%
20:00 +24°C° 0 mm 1 mps 703 mmHg 61%
21:00 +23°C° 0 mm 1 mps 703 mmHg 63%
22:00 +22°C° 0 mm 1 mps 703 mmHg 64%
23:00 +20°C° 0 mm 0 mps 703 mmHg 64%

17 August, Monday

Time Temperature Precipitation Wind Pressure Humidity
00:00 +20°C° 0 mm 0 mps 703 mmHg 65%
01:00 +19°C° 0 mm 0 mps 703 mmHg 66%
02:00 +19°C° 0 mm 0 mps 703 mmHg 68%
03:00 +18°C° 0 mm 0 mps 703 mmHg 71%
04:00 +19°C° 0 mm 1 mps 703 mmHg 74%
05:00 +20°C° 0 mm 1 mps 704 mmHg 71%
06:00 +21°C° 0 mm 1 mps 704 mmHg 68%
07:00 +22°C° 0 mm 1 mps 705 mmHg 65%
08:00 +24°C° 0 mm 1 mps 705 mmHg 60%
09:00 +25°C° 0 mm 1 mps 705 mmHg 55%
10:00 +27°C° 0 mm 2 mps 705 mmHg 51%
11:00 +28°C° 0 mm 1 mps 705 mmHg 48%
12:00 +29°C° 0 mm 1 mps 705 mmHg 46%
13:00 +30°C° 0 mm 1 mps 705 mmHg 44%
14:00 +30°C° 0 mm 1 mps 705 mmHg 43%
15:00 +30°C° 0 mm 1 mps 705 mmHg 43%
16:00 +30°C° 0 mm 2 mps 705 mmHg 43%
17:00 +28°C° 0 mm 2 mps 704 mmHg 49%
18:00 +26°C° 0 mm 2 mps 704 mmHg 56%
19:00 +24°C° 0 mm 2 mps 704 mmHg 62%
20:00 +24°C° 0 mm 1 mps 704 mmHg 64%
21:00 +23°C° 0 mm 1 mps 705 mmHg 65%
22:00 +22°C° 0 mm 1 mps 705 mmHg 66%
23:00 +22°C° 0 mm 1 mps 705 mmHg 68%
Show more